DW9837 Weather Reports


Display with metric or nautical units.
time (UTC)temp
F
wind
direction
speed
MPH
gust
MPH
rain 1hr
in
rain 24hr
in
rain mn
in
humidity
%
barometer
mb
20260902161559 74 198 1.0 8.0 0.00 0.02 0.00 58 1021.3
20260902160049 74 199 3.0 6.0 0.00 0.02 0.00 57 1021.2
20260902154600 74 97 1.0 4.0 0.00 0.02 0.00 62 1021.3
20260902153045 74 99 1.0 3.0 0.00 0.02 0.00 63 1021.4
20260902151540 73 170 1.0 4.0 0.00 0.02 0.00 66 1021.3
20260902150036 73 130 2.0 5.0 0.00 0.02 0.00 67 1021.1
20260902144535 71 187 2.0 5.0 0.00 0.12 0.00 71 1021.2
20260902143029 70 111 2.0 8.0 0.00 0.12 0.00 71 1021.3
20260902141527 68 118 2.0 5.0 0.00 0.12 0.00 75 1021.0
20260902140032 68 88 1.0 5.0 0.00 0.12 0.00 77 1020.8
20260902134520 67 84 2.0 5.0 0.00 0.14 0.00 79 1020.7
20260902133018 67 128 1.0 5.0 0.00 0.14 0.00 83 1020.5
20260902131516 66 96 1.0 5.0 0.00 0.14 0.00 84 1020.6
20260902130013 66 90 1.0 6.0 0.00 0.14 0.00 85 1020.6
20260902124516 65 54 0.0 5.0 0.00 0.14 0.00 87 1020.7
20260902123009 65 75 0.0 3.0 0.00 0.14 0.00 87 1020.8
20260902121622 65 89 0.0 2.0 0.00 0.14 0.00 88 1020.8
20260902120107 64 12 1.0 5.0 0.00 0.14 0.00 88 1020.9
20260902114503 63 48 0.0 1.0 0.00 0.14 0.00 90 1020.8
20260902113059 63 75 0.0 3.0 0.00 0.14 0.00 91 1020.6
20260902111559 63 103 2.0 7.0 0.00 0.14 0.00 91 1020.6
20260902110055 62 102 0.0 2.0 0.00 0.14 0.00 91 1020.4
20260902104557 62 107 0.0 2.0 0.00 0.14 0.00 91 1020.4
20260902103100 62 107 0.0 3.0 0.00 0.14 0.00 92 1020.4
20260902101558 62 101 0.0 5.0 0.00 0.14 0.00 92 1020.4
20260902100052 61 97 0.0 1.0 0.00 0.14 0.00 92 1020.3
20260902094552 61 97 0.0 1.0 0.00 0.14 0.00 92 1020.1
20260902093116 61 79 0.0 2.0 0.00 0.14 0.00 92 1019.8
20260902091553 61 52 0.0 1.0 0.00 0.14 0.00 92 1019.6
20260902090055 62 19 0.0 1.0 0.00 0.14 0.00 92 1019.6
20260902084553 62 44 0.0 3.0 0.00 0.14 0.00 92 1019.4
20260902083050 61 85 0.0 3.0 0.00 0.14 0.00 92 1019.5
20260902081600 61 90 0.0 3.0 0.00 0.14 0.00 92 1019.6
20260902080043 61 65 0.0 5.0 0.00 0.14 0.00 93 1019.5
20260902074541 61 104 1.0 4.0 0.00 0.14 0.00 93 1019.4
20260902073039 61 345 0.0 5.0 0.00 0.14 0.00 93 1019.4
20260902071538 61 94 0.0 3.0 0.00 0.14 0.00 93 1019.2
20260902070036 61 79 0.0 2.0 0.00 0.14 0.00 93 1019.2
20260902064537 61 104 0.0 4.0 0.00 0.14 0.00 93 1019.1
20260902063035 62 90 1.0 3.0 0.00 0.14 0.00 92 1019.0
20260902061545 62 68 0.0 4.0 0.00 0.14 0.00 92 1019.3
20260902060032 62 9 0.0 3.0 0.00 0.14 0.00 92 1019.2
20260902054534 62 85 0.0 2.0 0.00 0.14 0.00 92 1019.2
20260902053030 62 67 0.0 1.0 0.00 0.14 0.00 92 1019.2
20260902051528 62 97 1.0 4.0 0.00 0.14 0.00 92 1018.9
20260902050028 62 109 0.0 2.0 0.00 0.14 0.00 93 1019.2
20260902044525 62 23 0.0 7.0 0.00 0.14 0.00 93 1018.9
20260902043024 62 101 0.0 5.0 0.00 0.14 0.00 93 1018.6
20260902041523 62 80 0.0 5.0 0.00 0.14 0.00 94 1018.6
20260902040020 62 80 0.0 2.0 0.00 0.14 0.00 94 1018.6
20260902034519 62 77 0.0 3.0 0.00 0.14 0.14 94 1018.7
20260902033019 62 85 1.0 3.0 0.00 0.14 0.14 94 1018.7
20260902031518 62 114 1.0 5.0 0.00 0.14 0.14 94 1018.8
20260902030016 62 66 0.0 3.0 0.00 0.14 0.14 95 1018.6
20260902024520 62 101 0.0 7.0 0.00 0.14 0.14 95 1018.4
20260902023014 62 99 2.0 6.0 0.01 0.14 0.14 95 1018.4
20260902021514 62 92 0.0 3.0 0.01 0.14 0.14 95 1018.3
20260902020020 62 20 0.0 5.0 0.01 0.14 0.14 95 1017.9
20260902014514 62 85 2.0 7.0 0.01 0.14 0.14 95 1017.6
20260902013012 62 77 1.0 7.0 0.00 0.13 0.13 95 1017.4
20260902011512 62 114 2.0 6.0 0.00 0.13 0.13 94 1017.3
20260902010017 62 112 0.0 6.0 0.00 0.13 0.13 93 1017.0
20260902004510 62 116 0.0 3.0 0.00 0.13 0.13 93 1017.3
20260902003010 62 98 2.0 8.0 0.00 0.13 0.13 93 1017.5
20260902001509 62 90 0.0 5.0 0.00 0.13 0.13 93 1017.3
20260902000008 62 98 1.0 6.0 0.00 0.13 0.13 93 1017.3
20260901234507 62 74 2.0 9.0 0.00 0.13 0.13 93 1017.1
20260901233011 62 116 1.0 7.0 0.00 0.13 0.13 92 1017.1
20260901231503 62 114 2.0 7.0 0.00 0.13 0.13 92 1017.0
20260901230002 63 170 3.0 10.0 0.00 0.13 0.13 92 1017.0
20260901224502 63 327 1.0 6.0 0.00 0.13 0.13 91 1016.8
20260901223000 63 85 3.0 7.0 0.00 0.13 0.13 91 1016.9
20260901221603 63 120 0.0 8.0 0.00 0.13 0.13 91 1016.8
20260901221500 63 121 1.0 8.0 0.00 0.13 0.13 91 1016.8
20260901220059 63 92 2.0 6.0 0.00 0.13 0.13 91 1016.7
20260901214602 63 112 3.0 9.0 0.00 0.13 0.13 90 1016.7
20260901213114 63 104 4.0 8.0 0.01 0.13 0.13 90 1016.8
20260901211558 63 89 1.0 8.0 0.01 0.13 0.13 91 1016.8
20260901210057 64 90 2.0 7.0 0.01 0.13 0.13 90 1016.5
20260901204556 64 80 1.0 7.0 0.01 0.13 0.13 89 1016.4
20260901203113 65 78 0.0 9.0 0.00 0.12 0.12 86 1016.2
20260901201555 65 90 2.0 8.0 0.00 0.12 0.12 85 1016.0
20260901200054 66 71 1.0 6.0 0.00 0.12 0.12 85 1016.0
20260901194558 66 88 3.0 6.0 0.00 0.12 0.12 84 1016.0
20260901193100 66 90 3.0 8.0 0.00 0.12 0.12 83 1015.9
20260901191554 66 53 0.0 5.0 0.00 0.12 0.12 85 1015.8
20260901190106 66 175 1.0 6.0 0.00 0.12 0.12 87 1015.8
20260901184553 65 195 3.0 13.0 0.00 0.12 0.12 89 1015.6
20260901183053 65 187 1.0 5.0 0.00 0.12 0.12 92 1015.8
20260901181550 64 232 0.0 5.0 0.00 0.12 0.12 94 1016.0
20260901180049 64 76 1.0 7.0 0.00 0.12 0.12 94 1015.8
20260901174548 64 189 4.0 12.0 0.00 0.12 0.12 94 1016.1
20260901173047 63 149 3.0 9.0 0.00 0.12 0.12 94 1016.1
20260901171603 63 194 2.0 8.0 0.00 0.12 0.12 93 1016.2
20260901170048 64 227 3.0 11.0 0.00 0.12 0.12 93 1016.2
20260901164544 64 127 0.0 11.0 0.00 0.12 0.12 92 1016.0
20260901163038 66 137 3.0 9.0 0.00 0.12 0.12 91 1016.3